Time,TemperatureF,DewpointF,PressureIn,WindDirection,WindDirectionDegrees,WindSpeedMPH,WindSpeedGustMPH,Humidity,HourlyPrecipIn,Conditions,Clouds,dailyrainin,SoftwareType,DateUTC
2013-04-19 00:03:00,35.0,30.0,29.94,NNE,15,1.0,-999.0,82,-99.99,,,-99.99,,2013-04-19 05:03:00,
2013-04-19 00:11:00,35.0,30.0,29.94,NNE,15,1.0,-999.0,82,-99.99,,,-99.99,,2013-04-19 05:11:00,
2013-04-19 00:22:00,35.0,30.0,29.94,NNW,328,1.0,-999.0,82,-99.99,,,-99.99,,2013-04-19 05:22:00,
2013-04-19 00:32:00,34.0,29.0,29.94,NW,325,0.0,-999.0,82,-99.99,,,-99.99,,2013-04-19 05:32:00,
2013-04-19 00:42:00,34.0,29.0,29.94,NW,325,0.0,-999.0,82,-99.99,,,-99.99,,2013-04-19 05:42:00,
2013-04-19 00:52:00,34.0,29.0,29.94,NW,326,1.0,-999.0,81,-99.99,,,-99.99,,2013-04-19 05:52:00,
2013-04-19 01:02:00,34.0,29.0,29.94,NW,309,1.0,-999.0,81,-99.99,,,-99.99,,2013-04-19 06:02:00,
2013-04-19 01:11:00,34.0,29.0,29.94,NW,309,1.0,-999.0,81,-99.99,,,-99.99,,2013-04-19 06:11:00,
2013-04-19 01:22:00,34.0,29.0,29.94,NNW,345,0.0,-999.0,81,-99.99,,,-99.99,,2013-04-19 06:22:00,
2013-04-19 01:32:00,34.0,29.0,29.93,NNW,332,0.0,-999.0,82,-99.99,,,-99.99,,2013-04-19 06:32:00,
2013-04-19 01:42:00,34.0,29.0,29.93,NNW,332,0.0,-999.0,82,-99.99,,,-99.99,,2013-04-19 06:42:00,
2013-04-19 01:52:00,34.0,29.0,29.93,WSW,249,1.0,-999.0,82,-99.99,,,-99.99,,2013-04-19 06:52:00,
2013-04-19 02:02:00,34.0,29.0,29.94,WNW,293,0.0,-999.0,82,-99.99,,,-99.99,,2013-04-19 07:02:00,
2013-04-19 02:12:00,34.0,29.0,29.94,WNW,293,0.0,-999.0,82,-99.99,,,-99.99,,2013-04-19 07:12:00,
2013-04-19 02:21:00,34.0,29.0,29.93,NNE,20,0.0,-999.0,82,-99.99,,,-99.99,,2013-04-19 07:21:00,
2013-04-19 02:32:00,34.0,29.0,29.93,North,351,0.0,-999.0,83,-99.99,,,-99.99,,2013-04-19 07:32:00,
2013-04-19 02:42:00,34.0,29.0,29.93,North,351,0.0,-999.0,83,-99.99,,,-99.99,,2013-04-19 07:42:00,
2013-04-19 02:52:00,34.0,29.0,29.92,NW,318,0.0,-999.0,83,-99.99,,,-99.99,,2013-04-19 07:52:00,
2013-04-19 03:02:00,34.0,29.0,29.92,North,11,0.0,-999.0,83,-99.99,,,-99.99,,2013-04-19 08:02:00,
2013-04-19 03:12:00,34.0,29.0,29.92,West,279,0.0,-999.0,82,-99.99,,,-99.99,,2013-04-19 08:12:00,
2013-04-19 03:21:00,34.0,29.0,29.92,West,279,0.0,-999.0,82,-99.99,,,-99.99,,2013-04-19 08:21:00,
2013-04-19 03:32:00,34.0,29.0,29.92,SSW,194,0.0,-999.0,82,-99.99,,,-99.99,,2013-04-19 08:32:00,
2013-04-19 03:42:00,34.0,29.0,29.92,SSW,194,0.0,-999.0,82,-99.99,,,-99.99,,2013-04-19 08:42:00,
2013-04-19 03:52:00,34.0,29.0,29.92,North,355,1.0,-999.0,81,-99.99,,,-99.99,,2013-04-19 08:52:00,
2013-04-19 04:01:00,34.0,29.0,29.92,NE,43,1.0,-999.0,81,-99.99,,,-99.99,,2013-04-19 09:01:00,
2013-04-19 04:11:00,34.0,29.0,29.92,NE,43,1.0,-999.0,81,-99.99,,,-99.99,,2013-04-19 09:11:00,
2013-04-19 04:21:00,34.0,29.0,29.92,West,261,0.0,-999.0,81,-99.99,,,-99.99,,2013-04-19 09:21:00,
2013-04-19 04:32:00,34.0,28.0,29.93,WNW,294,0.0,-999.0,80,-99.99,,,-99.99,,2013-04-19 09:32:00,
2013-04-19 04:42:00,34.0,28.0,29.93,WNW,294,0.0,-999.0,80,-99.99,,,-99.99,,2013-04-19 09:42:00,
2013-04-19 04:52:00,33.0,28.0,29.93,SSE,162,0.0,-999.0,80,-99.99,,,-99.99,,2013-04-19 09:52:00,
2013-04-19 05:02:00,33.0,28.0,29.93,NW,326,0.0,-999.0,81,-99.99,,,-99.99,,2013-04-19 10:02:00,
2013-04-19 05:13:00,33.0,28.0,29.93,NNE,15,0.0,-999.0,82,-99.99,,,-99.99,,2013-04-19 10:13:00,
2013-04-19 05:23:00,33.0,28.0,29.93,NNE,15,0.0,-999.0,82,-99.99,,,-99.99,,2013-04-19 10:23:00,
2013-04-19 05:33:00,32.0,27.0,29.93,SW,218,1.0,-999.0,82,-99.99,,,-99.99,,2013-04-19 10:33:00,
2013-04-19 05:42:00,32.0,27.0,29.93,SW,235,0.0,-999.0,83,-99.99,,,-99.99,,2013-04-19 10:42:00,
2013-04-19 05:52:00,32.0,27.0,29.93,SW,235,0.0,-999.0,83,-99.99,,,-99.99,,2013-04-19 10:52:00,
2013-04-19 06:02:00,32.0,27.0,29.94,West,275,1.0,-999.0,83,-99.99,,,-99.99,,2013-04-19 11:02:00,
2013-04-19 06:11:00,32.0,27.0,29.94,West,275,1.0,-999.0,83,-99.99,,,-99.99,,2013-04-19 11:11:00,
2013-04-19 06:22:00,32.0,27.0,29.94,North,360,1.0,-999.0,82,-99.99,,,-99.99,,2013-04-19 11:22:00,
2013-04-19 06:32:00,32.0,27.0,29.95,NE,51,0.0,-999.0,82,-99.99,,,-99.99,,2013-04-19 11:32:00,
2013-04-19 06:42:00,32.0,27.0,29.95,NE,51,0.0,-999.0,82,-99.99,,,-99.99,,2013-04-19 11:42:00,
2013-04-19 06:52:00,32.0,27.0,29.95,SSW,201,0.0,-999.0,81,-99.99,,,-99.99,,2013-04-19 11:52:00,
2013-04-19 07:02:00,32.0,27.0,29.96,SW,230,0.0,-999.0,82,-99.99,,,-99.99,,2013-04-19 12:02:00,
2013-04-19 07:12:00,31.0,26.0,29.96,East,86,0.0,-999.0,82,-99.99,,,-99.99,,2013-04-19 12:12:00,
2013-04-19 07:22:00,31.0,26.0,29.96,East,86,0.0,-999.0,82,-99.99,,,-99.99,,2013-04-19 12:22:00,
2013-04-19 07:32:00,32.0,27.0,29.97,West,264,0.0,-999.0,82,-99.99,,,-99.99,,2013-04-19 12:32:00,
2013-04-19 07:42:00,32.0,27.0,29.97,West,264,0.0,-999.0,82,-99.99,,,-99.99,,2013-04-19 12:42:00,
2013-04-19 07:52:00,32.0,27.0,29.97,SE,133,1.0,-999.0,81,-99.99,,,-99.99,,2013-04-19 12:52:00,
2013-04-19 08:01:00,32.0,27.0,29.98,WSW,244,0.0,-999.0,80,-99.99,,,-99.99,,2013-04-19 13:01:00,
2013-04-19 08:11:00,33.0,27.0,29.98,NNW,338,1.0,-999.0,79,-99.99,,,-99.99,,2013-04-19 13:11:00,
2013-04-19 08:21:00,33.0,27.0,29.98,NNW,338,1.0,-999.0,79,-99.99,,,-99.99,,2013-04-19 13:21:00,
2013-04-19 08:32:00,34.0,28.0,29.98,SSW,202,0.0,-999.0,78,-99.99,,,-99.99,,2013-04-19 13:32:00,
2013-04-19 08:42:00,34.0,28.0,29.98,SSW,202,0.0,-999.0,78,-99.99,,,-99.99,,2013-04-19 13:42:00,
2013-04-19 08:52:00,35.0,28.0,29.98,West,271,0.0,-999.0,75,-99.99,,,-99.99,,2013-04-19 13:52:00,
2013-04-19 09:02:00,35.0,27.0,29.98,West,268,1.0,-999.0,71,-99.99,,,-99.99,,2013-04-19 14:02:00,
2013-04-19 09:11:00,37.0,29.0,29.99,West,273,1.0,-999.0,72,-99.99,,,-99.99,,2013-04-19 14:11:00,
2013-04-19 09:22:00,37.0,29.0,29.99,West,273,1.0,-999.0,72,-99.99,,,-99.99,,2013-04-19 14:22:00,
2013-04-19 09:32:00,37.0,28.0,29.99,SW,223,1.0,-999.0,69,-99.99,,,-99.99,,2013-04-19 14:32:00,
2013-04-19 09:42:00,37.0,28.0,29.99,SW,223,1.0,-999.0,69,-99.99,,,-99.99,,2013-04-19 14:42:00,
2013-04-19 09:52:00,38.0,28.0,29.99,NNE,18,1.0,-999.0,68,-99.99,,,-99.99,,2013-04-19 14:52:00,
2013-04-19 10:01:00,39.0,28.0,29.99,SSW,203,1.0,-999.0,64,-99.99,,,-99.99,,2013-04-19 15:01:00,
2013-04-19 10:12:00,39.0,28.0,29.99,SSW,203,1.0,-999.0,64,-99.99,,,-99.99,,2013-04-19 15:12:00,
2013-04-19 10:21:00,39.0,27.0,30.00,NNW,338,1.0,-999.0,63,-99.99,,,-99.99,,2013-04-19 15:21:00,
2013-04-19 10:33:00,40.0,28.0,30.00,NNW,339,1.0,-999.0,62,-99.99,,,-99.99,,2013-04-19 15:33:00,
2013-04-19 10:43:00,40.0,28.0,30.00,NNW,339,1.0,-999.0,62,-99.99,,,-99.99,,2013-04-19 15:43:00,
2013-04-19 10:52:00,41.0,29.0,29.99,South,178,1.0,-999.0,61,-99.99,,,-99.99,,2013-04-19 15:52:00,
2013-04-19 11:03:00,42.0,30.0,30.00,WSW,252,1.0,-999.0,62,-99.99,,,-99.99,,2013-04-19 16:03:00,
2013-04-19 11:12:00,42.0,30.0,30.00,WSW,252,1.0,-999.0,62,-99.99,,,-99.99,,2013-04-19 16:12:00,
2013-04-19 11:23:00,42.0,28.0,30.00,NE,39,2.0,-999.0,57,-99.99,,,-99.99,,2013-04-19 16:23:00,
2013-04-19 11:32:00,43.0,29.0,30.01,NNW,340,1.0,-999.0,57,-99.99,,,-99.99,,2013-04-19 16:32:00,
2013-04-19 11:42:00,43.0,29.0,30.01,NNW,340,1.0,-999.0,57,-99.99,,,-99.99,,2013-04-19 16:42:00,
2013-04-19 11:52:00,43.0,28.0,30.00,NNE,14,1.0,-999.0,54,-99.99,,,-99.99,,2013-04-19 16:52:00,
2013-04-19 12:02:00,44.0,28.0,30.00,ENE,67,1.0,-999.0,53,-99.99,,,-99.99,,2013-04-19 17:02:00,
2013-04-19 12:12:00,44.0,28.0,30.00,ENE,67,1.0,-999.0,53,-99.99,,,-99.99,,2013-04-19 17:12:00,
2013-04-19 12:21:00,45.0,27.0,30.00,NNW,333,1.0,-999.0,50,-99.99,,,-99.99,,2013-04-19 17:21:00,
2013-04-19 12:33:00,47.0,31.0,30.00,North,355,0.0,-999.0,54,-99.99,,,-99.99,,2013-04-19 17:33:00,
2013-04-19 12:42:00,47.0,31.0,30.00,North,355,0.0,-999.0,54,-99.99,,,-99.99,,2013-04-19 17:42:00,
2013-04-19 12:52:00,47.0,30.0,30.00,NNE,20,2.0,-999.0,52,-99.99,,,-99.99,,2013-04-19 17:52:00,
2013-04-19 13:02:00,48.0,28.0,30.00,NNW,346,2.0,-999.0,46,-99.99,,,-99.99,,2013-04-19 18:02:00,
2013-04-19 13:13:00,48.0,28.0,30.00,NNW,346,2.0,-999.0,46,-99.99,,,-99.99,,2013-04-19 18:13:00,
2013-04-19 13:23:00,48.0,29.0,30.00,NNE,13,2.0,-999.0,48,-99.99,,,-99.99,,2013-04-19 18:23:00,
2013-04-19 13:33:00,49.0,30.0,30.01,NE,41,2.0,-999.0,47,-99.99,,,-99.99,,2013-04-19 18:33:00,
2013-04-19 13:42:00,49.0,30.0,30.01,NE,41,2.0,-999.0,47,-99.99,,,-99.99,,2013-04-19 18:42:00,
2013-04-19 13:52:00,48.0,28.0,30.00,NNW,347,2.0,-999.0,46,-99.99,,,-99.99,,2013-04-19 18:52:00,
2013-04-19 14:02:00,50.0,29.0,30.00,NNW,348,3.0,-999.0,44,-99.99,,,-99.99,,2013-04-19 19:02:00,
2013-04-19 14:11:00,50.0,29.0,30.00,NNW,348,3.0,-999.0,44,-99.99,,,-99.99,,2013-04-19 19:11:00,
2013-04-19 14:21:00,49.0,31.0,30.00,NNW,347,2.0,-999.0,49,-99.99,,,-99.99,,2013-04-19 19:21:00,
2013-04-19 14:32:00,50.0,31.0,30.00,North,355,1.0,-999.0,47,-99.99,,,-99.99,,2013-04-19 19:32:00,
2013-04-19 14:42:00,50.0,31.0,30.00,North,355,1.0,-999.0,47,-99.99,,,-99.99,,2013-04-19 19:42:00,
2013-04-19 14:52:00,51.0,31.0,30.00,North,355,2.0,-999.0,47,-99.99,,,-99.99,,2013-04-19 19:52:00,
2013-04-19 15:02:00,52.0,30.0,30.00,NNE,24,2.0,-999.0,43,-99.99,,,-99.99,,2013-04-19 20:02:00,
2013-04-19 15:11:00,52.0,30.0,30.00,NNE,24,2.0,-999.0,43,-99.99,,,-99.99,,2013-04-19 20:11:00,
2013-04-19 15:22:00,50.0,29.0,30.00,ESE,121,1.0,-999.0,44,-99.99,,,-99.99,,2013-04-19 20:22:00,
2013-04-19 15:32:00,50.0,28.0,30.00,NNE,13,1.0,-999.0,43,-99.99,,,-99.99,,2013-04-19 20:32:00,
2013-04-19 15:42:00,51.0,30.0,30.00,NNE,18,1.0,-999.0,45,-99.99,,,-99.99,,2013-04-19 20:42:00,
2013-04-19 15:51:00,51.0,30.0,30.00,NNE,18,1.0,-999.0,45,-99.99,,,-99.99,,2013-04-19 20:51:00,
2013-04-19 16:01:00,53.0,32.0,30.00,NNW,336,2.0,-999.0,44,-99.99,,,-99.99,,2013-04-19 21:01:00,
2013-04-19 16:11:00,53.0,30.0,30.00,NNW,347,1.0,-999.0,41,-99.99,,,-99.99,,2013-04-19 21:11:00,
2013-04-19 16:21:00,53.0,30.0,30.00,NNW,347,1.0,-999.0,41,-99.99,,,-99.99,,2013-04-19 21:21:00,
2013-04-19 16:32:00,51.0,30.0,30.00,North,5,1.0,-999.0,44,-99.99,,,-99.99,,2013-04-19 21:32:00,
2013-04-19 16:42:00,51.0,30.0,30.00,North,5,1.0,-999.0,44,-99.99,,,-99.99,,2013-04-19 21:42:00,
2013-04-19 16:52:00,52.0,30.0,30.00,NNW,342,0.0,-999.0,43,-99.99,,,-99.99,,2013-04-19 21:52:00,
2013-04-19 17:02:00,52.0,28.0,30.00,NNW,334,2.0,-999.0,40,-99.99,,,-99.99,,2013-04-19 22:02:00,
2013-04-19 17:12:00,52.0,28.0,30.00,NNW,334,2.0,-999.0,40,-99.99,,,-99.99,,2013-04-19 22:12:00,
2013-04-19 17:22:00,53.0,30.0,30.01,North,355,1.0,-999.0,41,-99.99,,,-99.99,,2013-04-19 22:22:00,
2013-04-19 17:33:00,52.0,31.0,30.01,NNE,13,2.0,-999.0,44,-99.99,,,-99.99,,2013-04-19 22:33:00,
2013-04-19 17:42:00,52.0,31.0,30.01,NNE,13,2.0,-999.0,44,-99.99,,,-99.99,,2013-04-19 22:42:00,
2013-04-19 17:52:00,52.0,30.0,30.01,NNW,329,0.0,-999.0,43,-99.99,,,-99.99,,2013-04-19 22:52:00,
2013-04-19 18:03:00,52.0,31.0,30.02,North,350,0.0,-999.0,44,-99.99,,,-99.99,,2013-04-19 23:03:00,
2013-04-19 18:11:00,52.0,31.0,30.02,North,350,0.0,-999.0,44,-99.99,,,-99.99,,2013-04-19 23:11:00,
2013-04-19 18:22:00,51.0,30.0,30.02,North,350,0.0,-999.0,44,-99.99,,,-99.99,,2013-04-19 23:22:00,
2013-04-19 18:32:00,51.0,30.0,30.02,NNE,13,0.0,-999.0,45,-99.99,,,-99.99,,2013-04-19 23:32:00,
2013-04-19 18:42:00,51.0,30.0,30.02,NNE,13,0.0,-999.0,45,-99.99,,,-99.99,,2013-04-19 23:42:00,
2013-04-19 18:52:00,51.0,29.0,30.02,NW,319,1.0,-999.0,43,-99.99,,,-99.99,,2013-04-19 23:52:00,
2013-04-19 19:02:00,51.0,31.0,30.03,NNW,345,0.0,-999.0,46,-99.99,,,-99.99,,2013-04-20 00:02:00,
2013-04-19 19:12:00,51.0,31.0,30.03,NNW,345,0.0,-999.0,46,-99.99,,,-99.99,,2013-04-20 00:12:00,
2013-04-19 19:21:00,50.0,31.0,30.03,NNE,15,1.0,-999.0,47,-99.99,,,-99.99,,2013-04-20 00:21:00,
2013-04-19 19:32:00,49.0,30.0,30.03,North,5,0.0,-999.0,47,-99.99,,,-99.99,,2013-04-20 00:32:00,
2013-04-19 19:41:00,49.0,30.0,30.03,North,5,0.0,-999.0,47,-99.99,,,-99.99,,2013-04-20 00:41:00,
2013-04-19 19:51:00,47.0,29.0,30.04,NNW,337,0.0,-999.0,50,-99.99,,,-99.99,,2013-04-20 00:51:00,
2013-04-19 20:01:00,46.0,29.0,30.04,NNW,337,0.0,-999.0,52,-99.99,,,-99.99,,2013-04-20 01:01:00,
2013-04-19 20:11:00,46.0,29.0,30.04,NNW,337,0.0,-999.0,52,-99.99,,,-99.99,,2013-04-20 01:11:00,
2013-04-19 20:21:00,44.0,28.0,30.05,NNW,337,0.0,-999.0,54,-99.99,,,-99.99,,2013-04-20 01:21:00,
2013-04-19 20:32:00,43.0,28.0,30.06,NNW,337,0.0,-999.0,56,-99.99,,,-99.99,,2013-04-20 01:32:00,
2013-04-19 20:42:00,43.0,28.0,30.06,NNW,337,0.0,-999.0,56,-99.99,,,-99.99,,2013-04-20 01:42:00,
2013-04-19 20:52:00,41.0,27.0,30.06,NNW,337,0.0,-999.0,58,-99.99,,,-99.99,,2013-04-20 01:52:00,
2013-04-19 21:01:00,40.0,28.0,30.07,NNW,337,0.0,-999.0,61,-99.99,,,-99.99,,2013-04-20 02:01:00,
2013-04-19 21:11:00,40.0,28.0,30.08,NNW,337,0.0,-999.0,63,-99.99,,,-99.99,,2013-04-20 02:11:00,
2013-04-19 21:21:00,40.0,28.0,30.08,NNW,337,0.0,-999.0,63,-99.99,,,-99.99,,2013-04-20 02:21:00,
2013-04-19 21:32:00,39.0,28.0,30.09,NNW,337,0.0,-999.0,64,-99.99,,,-99.99,,2013-04-20 02:32:00,
2013-04-19 21:42:00,39.0,28.0,30.09,NNW,337,0.0,-999.0,64,-99.99,,,-99.99,,2013-04-20 02:42:00,
2013-04-19 21:52:00,38.0,27.0,30.09,NNW,337,0.0,-999.0,64,-99.99,,,-99.99,,2013-04-20 02:52:00,
2013-04-19 22:01:00,37.0,27.0,30.10,NNW,337,0.0,-999.0,67,-99.99,,,-99.99,,2013-04-20 03:01:00,
2013-04-19 22:11:00,37.0,29.0,30.11,NNW,337,0.0,-999.0,74,-99.99,,,-99.99,,2013-04-20 03:11:00,
2013-04-19 22:21:00,37.0,29.0,30.11,NNW,337,0.0,-999.0,74,-99.99,,,-99.99,,2013-04-20 03:21:00,
2013-04-19 22:33:00,36.0,27.0,30.11,NNW,337,0.0,-999.0,69,-99.99,,,-99.99,,2013-04-20 03:33:00,
2013-04-19 22:43:00,36.0,27.0,30.11,NNW,337,0.0,-999.0,69,-99.99,,,-99.99,,2013-04-20 03:43:00,
2013-04-19 22:52:00,36.0,29.0,30.11,NNW,337,0.0,-999.0,75,-99.99,,,-99.99,,2013-04-20 03:52:00,
2013-04-19 23:03:00,35.0,29.0,30.11,NNW,337,0.0,-999.0,79,-99.99,,,-99.99,,2013-04-20 04:03:00,
2013-04-19 23:12:00,35.0,29.0,30.11,NNW,337,0.0,-999.0,79,-99.99,,,-99.99,,2013-04-20 04:12:00,
2013-04-19 23:23:00,34.0,29.0,30.12,NNW,337,0.0,-999.0,81,-99.99,,,-99.99,,2013-04-20 04:23:00,
2013-04-19 23:32:00,33.0,28.0,30.12,NNW,337,0.0,-999.0,82,-99.99,,,-99.99,,2013-04-20 04:32:00,
2013-04-19 23:42:00,33.0,28.0,30.12,NNW,337,0.0,-999.0,82,-99.99,,,-99.99,,2013-04-20 04:42:00,
2013-04-19 23:52:00,33.0,29.0,30.12,NNW,337,0.0,-999.0,84,-99.99,,,-99.99,,2013-04-20 04:52:00,